﻿_id,Station,Date,Leq 24Hr,Leq min,Leq max,Count Hr
1,ns01,2018-01-01T00:00:00,71.7,69.8,74,24
2,ns01,2018-01-02T00:00:00,71.2,65.5,73.1,24
3,ns01,2018-01-03T00:00:00,72.6,66.5,78.1,24
4,ns01,2018-01-04T00:00:00,72.3,67.3,74.7,24
5,ns01,2018-01-05T00:00:00,72.7,67,75.1,24
6,ns01,2018-01-06T00:00:00,72.4,68.1,75.9,24
7,ns01,2018-01-07T00:00:00,72.6,68.3,76.2,24
8,ns01,2018-01-08T00:00:00,72.7,68.2,75,24
9,ns01,2018-01-09T00:00:00,72.6,67.4,75.8,24
10,ns01,2018-01-10T00:00:00,73,66.5,75.9,24
11,ns01,2018-01-11T00:00:00,73,67.1,75.5,24
12,ns01,2018-01-12T00:00:00,73.4,68,75.9,24
13,ns01,2018-01-13T00:00:00,74.3,67.8,80.2,24
14,ns01,2018-01-14T00:00:00,72,69.7,73.3,24
15,ns01,2018-01-15T00:00:00,73.1,67.1,76.4,24
16,ns01,2018-01-16T00:00:00,73.4,68.8,76.5,24
17,ns01,2018-01-17T00:00:00,73.2,67.4,76.4,24
18,ns01,2018-01-18T00:00:00,72.5,66.7,75.7,24
19,ns01,2018-01-19T00:00:00,72.7,67.7,76.5,24
20,ns01,2018-01-20T00:00:00,72.4,68.4,76.4,24
21,ns01,2018-01-21T00:00:00,71.9,68.3,75.7,24
22,ns01,2018-01-22T00:00:00,72.7,66.5,74.8,24
23,ns01,2018-01-23T00:00:00,72.8,68.1,76,24
24,ns01,2018-01-24T00:00:00,72.7,67.2,75.4,24
25,ns01,2018-01-25T00:00:00,73,67,76.3,24
26,ns01,2018-01-26T00:00:00,73.1,67.8,76.9,24
27,ns01,2018-01-27T00:00:00,72.8,68.1,78.2,24
28,ns01,2018-01-28T00:00:00,71.7,69.1,72.9,24
29,ns01,2018-01-29T00:00:00,72.7,67.2,74.8,24
30,ns01,2018-01-30T00:00:00,72.7,67.9,75.4,24
31,ns01,2018-01-31T00:00:00,73.9,67.8,80.6,24
32,ns01,2018-02-01T00:00:00,72.8,67.1,75,24
33,ns01,2018-02-02T00:00:00,72.8,67.3,75.1,24
34,ns01,2018-02-03T00:00:00,72.8,68.4,74.5,24
35,ns01,2018-02-04T00:00:00,72.2,68.9,73.5,24
36,ns01,2018-02-05T00:00:00,72.8,67.7,75.2,24
37,ns01,2018-02-06T00:00:00,72.9,67.1,76.9,24
38,ns01,2018-02-07T00:00:00,72.9,68.3,75.9,24
39,ns01,2018-02-08T00:00:00,73,67,76.1,24
40,ns01,2018-02-09T00:00:00,72.8,67.7,74.8,24
41,ns01,2018-02-10T00:00:00,72.9,68.5,76,24
42,ns01,2018-02-11T00:00:00,72,68.7,74.7,24
43,ns01,2018-02-12T00:00:00,72.8,67.5,75.8,24
44,ns01,2018-02-13T00:00:00,72.8,69.2,74.7,24
45,ns01,2018-02-14T00:00:00,73.4,70.8,75.2,24
46,ns01,2018-02-15T00:00:00,72.9,68.7,76.1,24
47,ns01,2018-02-16T00:00:00,72.7,67.4,75.8,24
48,ns01,2018-02-17T00:00:00,72.8,68.4,75.1,24
49,ns01,2018-02-18T00:00:00,71.6,67.5,73.9,24
50,ns01,2018-02-19T00:00:00,72.9,67.4,75.4,24
51,ns01,2018-02-20T00:00:00,72.7,67.8,75.1,24
52,ns01,2018-02-21T00:00:00,73.2,68.4,77.9,24
53,ns01,2018-02-22T00:00:00,72.6,68.4,75.1,24
54,ns01,2018-02-23T00:00:00,73.2,67,74.5,24
55,ns01,2018-02-24T00:00:00,72.3,67.5,74.2,24
56,ns01,2018-02-25T00:00:00,72.2,68.4,74.4,24
57,ns01,2018-02-26T00:00:00,73,67.7,76.5,24
58,ns01,2018-02-27T00:00:00,73.1,67.2,77.2,24
59,ns01,2018-02-28T00:00:00,73,68.4,75.2,24
60,ns01,2018-03-01T00:00:00,72.3,69.8,73.7,24
61,ns01,2018-03-02T00:00:00,72.6,67.4,74.8,24
62,ns01,2018-03-03T00:00:00,72.5,69,74,24
63,ns01,2018-03-04T00:00:00,72,68.5,74.8,24
64,ns01,2018-03-05T00:00:00,73.1,68.3,77.6,24
65,ns01,2018-03-06T00:00:00,73.1,69.1,77.5,24
66,ns01,2018-03-07T00:00:00,73.1,68.1,76.7,24
67,ns01,2018-03-08T00:00:00,72.7,68.1,76.1,24
68,ns01,2018-03-09T00:00:00,73,69.1,75.5,24
69,ns01,2018-03-10T00:00:00,73,67.9,77.7,24
70,ns01,2018-03-11T00:00:00,72,67.8,73.8,24
71,ns01,2018-03-12T00:00:00,72.7,67.9,74.6,24
72,ns01,2018-03-13T00:00:00,72.8,68.2,75.3,24
73,ns01,2018-03-14T00:00:00,73.1,68.1,75.8,24
74,ns01,2018-03-15T00:00:00,72.9,68,75.2,24
75,ns01,2018-03-16T00:00:00,72.7,68.3,74.6,24
76,ns01,2018-03-17T00:00:00,72.5,68,74.9,24
77,ns01,2018-03-18T00:00:00,72.3,67.9,78.5,24
78,ns01,2018-03-19T00:00:00,72.8,67.6,77.1,24
79,ns01,2018-03-20T00:00:00,72.6,66.9,74.8,24
80,ns01,2018-03-21T00:00:00,72.6,67.5,74.6,24
81,ns01,2018-03-22T00:00:00,73.7,67.7,78.8,24
82,ns01,2018-03-23T00:00:00,72.7,68.2,74.8,24
83,ns01,2018-03-24T00:00:00,72.7,69,74,24
84,ns01,2018-03-25T00:00:00,71.7,68.4,73.2,24
85,ns01,2018-03-26T00:00:00,72.4,67,74.3,24
86,ns01,2018-03-27T00:00:00,72.8,68,75.4,24
87,ns01,2018-03-28T00:00:00,73,68.4,77.1,24
88,ns01,2018-03-29T00:00:00,72.8,67.5,75.8,24
89,ns01,2018-03-30T00:00:00,73.4,69.2,75.5,24
90,ns01,2018-03-31T00:00:00,72.7,69.6,74.9,24
91,ns01,2018-04-01T00:00:00,72.4,67.8,75.7,24
92,ns01,2018-04-02T00:00:00,72.9,68.1,77.4,24
93,ns01,2018-04-03T00:00:00,73.3,67.5,80.1,24
94,ns01,2018-04-04T00:00:00,72.6,68,74.6,24
95,ns01,2018-04-05T00:00:00,72.5,68.3,74.1,24
96,ns01,2018-04-06T00:00:00,72.6,69.4,77,24
97,ns01,2018-04-07T00:00:00,72.3,69,75,24
98,ns01,2018-04-08T00:00:00,72,68.9,74.1,24
99,ns01,2018-04-09T00:00:00,72.6,66.8,75.2,24
100,ns01,2018-04-10T00:00:00,72.6,68.5,75.9,24
101,ns01,2018-04-11T00:00:00,72.3,67.5,74.1,24
102,ns01,2018-04-12T00:00:00,72.7,68.6,75.4,24
103,ns01,2018-04-13T00:00:00,73.2,69,77.9,24
104,ns01,2018-04-14T00:00:00,73,69.1,75.7,24
105,ns01,2018-04-15T00:00:00,76.1,68,84.1,24
106,ns01,2018-04-16T00:00:00,71.1,68.2,72.7,24
107,ns01,2018-04-17T00:00:00,72.3,67.1,76.6,24
108,ns01,2018-04-18T00:00:00,72.2,66.3,75.5,24
109,ns01,2018-04-19T00:00:00,72.5,66.5,74.8,24
110,ns01,2018-04-20T00:00:00,72.5,67.9,75,24
111,ns01,2018-04-21T00:00:00,72.1,68.6,74.3,24
112,ns01,2018-04-22T00:00:00,71.1,67.3,72.8,24
113,ns01,2018-04-23T00:00:00,72.6,67.1,77.3,24
114,ns01,2018-04-24T00:00:00,72.5,67.2,75.3,24
115,ns01,2018-04-25T00:00:00,72.3,66.6,74.1,24
116,ns01,2018-04-26T00:00:00,72.5,68.4,74.5,24
117,ns01,2018-04-27T00:00:00,72.3,67.5,74.5,24
118,ns01,2018-04-28T00:00:00,72.3,68.2,75,24
119,ns01,2018-04-29T00:00:00,71.9,67.9,75.6,24
120,ns01,2018-04-30T00:00:00,72.3,66.7,74.4,24
121,ns01,2018-05-01T00:00:00,71.8,67.4,74,24
122,ns01,2018-05-02T00:00:00,72.2,66.9,74.3,24
123,ns01,2018-05-03T00:00:00,72.4,67.3,74.2,24
124,ns01,2018-05-04T00:00:00,72.5,67.8,75.8,24
125,ns01,2018-05-05T00:00:00,72.4,68.3,75.3,24
126,ns01,2018-05-06T00:00:00,71.5,68.6,72.8,24
127,ns01,2018-05-07T00:00:00,72.5,67.7,75.9,24
128,ns01,2018-05-08T00:00:00,72,67,74,24
129,ns01,2018-05-09T00:00:00,72.1,67,75.6,24
130,ns01,2018-05-10T00:00:00,72.2,67.7,74,24
131,ns01,2018-05-11T00:00:00,72.2,68,73.9,24
132,ns01,2018-05-12T00:00:00,72,68.5,74.6,24
133,ns01,2018-05-13T00:00:00,71.6,68.1,74.2,24
134,ns01,2018-05-14T00:00:00,71.9,68.1,74.7,24
135,ns01,2018-05-15T00:00:00,72.2,68.1,74.4,24
136,ns01,2018-05-16T00:00:00,72.4,67.1,76.1,24
137,ns01,2018-05-17T00:00:00,72.1,67.9,74.5,24
138,ns01,2018-05-18T00:00:00,72.4,68.1,74.8,24
139,ns01,2018-05-19T00:00:00,72,67.1,74.2,24
140,ns01,2018-05-20T00:00:00,71.6,68.3,76,24
141,ns01,2018-05-21T00:00:00,72.4,67.9,74.3,24
142,ns01,2018-05-22T00:00:00,72.4,67.3,75,24
143,ns01,2018-05-23T00:00:00,72.2,67.4,76.2,24
144,ns01,2018-05-24T00:00:00,72.3,67.3,75,24
145,ns01,2018-05-25T00:00:00,72.4,67.4,74.5,24
146,ns01,2018-05-26T00:00:00,71.9,67.7,74.9,24
147,ns01,2018-05-27T00:00:00,71.3,67.4,73.4,24
148,ns01,2018-05-28T00:00:00,72.6,67,75.4,24
149,ns01,2018-05-29T00:00:00,72.1,68,74.4,24
150,ns01,2018-05-30T00:00:00,72.1,66.5,74.1,24
151,ns01,2018-05-31T00:00:00,72.4,66.7,75.4,24
152,ns01,2018-06-01T00:00:00,72.8,67.3,75.9,24
153,ns01,2018-06-02T00:00:00,72.2,68.1,75.3,24
154,ns01,2018-06-03T00:00:00,71.5,67.8,73,24
155,ns01,2018-06-04T00:00:00,72.3,68.3,76.3,24
156,ns01,2018-06-05T00:00:00,72.2,67.2,74.3,24
157,ns01,2018-06-06T00:00:00,72,67.9,74.7,24
158,ns01,2018-06-07T00:00:00,72.3,67.2,74.5,24
159,ns01,2018-06-08T00:00:00,72.3,67.4,74.7,24
160,ns01,2018-06-09T00:00:00,71.7,67.6,73.2,24
161,ns01,2018-06-10T00:00:00,71.6,67.9,74.3,24
162,ns01,2018-06-11T00:00:00,72.2,67.5,75.2,24
163,ns01,2018-06-12T00:00:00,72.2,67.9,73.8,24
164,ns01,2018-06-13T00:00:00,72.3,67.1,76.1,24
165,ns01,2018-06-14T00:00:00,72.2,67.5,74.8,24
166,ns01,2018-06-15T00:00:00,72.1,67.4,74.3,24
167,ns01,2018-06-16T00:00:00,72,67.8,76.1,24
168,ns01,2018-06-17T00:00:00,71.6,68,74.8,24
169,ns01,2018-06-18T00:00:00,72,66.8,73.9,24
170,ns01,2018-06-19T00:00:00,72.5,67.8,75.8,24
171,ns01,2018-06-20T00:00:00,72.3,67.6,75.5,24
172,ns01,2018-06-21T00:00:00,72.4,67.5,74.6,24
173,ns01,2018-06-22T00:00:00,72.5,67.8,75.6,24
174,ns01,2018-06-23T00:00:00,72.6,67.6,79.2,24
175,ns01,2018-06-24T00:00:00,71.6,68,73,24
176,ns01,2018-06-25T00:00:00,72.5,67.1,74.5,24
177,ns01,2018-06-26T00:00:00,72.4,67,74.3,24
178,ns01,2018-06-27T00:00:00,72.7,67.5,75.5,24
179,ns01,2018-06-28T00:00:00,72.7,68.2,76.2,24
180,ns01,2018-06-29T00:00:00,72.5,66.8,75.2,24
181,ns01,2018-06-30T00:00:00,72.2,68.1,74.6,24
182,ns01,2018-07-01T00:00:00,71.3,67.4,73.2,24
183,ns01,2018-07-02T00:00:00,72.5,67.4,74.9,24
184,ns01,2018-07-03T00:00:00,72.7,66.5,76.9,24
185,ns01,2018-07-04T00:00:00,72.4,67.4,75.7,24
186,ns01,2018-07-05T00:00:00,72.4,67.2,74.1,24
187,ns01,2018-07-06T00:00:00,73,68.1,77.3,24
188,ns01,2018-07-07T00:00:00,72.3,67.5,75.5,24
189,ns01,2018-07-08T00:00:00,71.7,68.9,73,24
190,ns01,2018-07-09T00:00:00,72.4,67,76,24
191,ns01,2018-07-10T00:00:00,72.2,67.1,74.3,24
192,ns01,2018-07-11T00:00:00,72.4,68.2,76.2,24
193,ns01,2018-07-12T00:00:00,72.2,67.8,75.3,24
194,ns01,2018-07-13T00:00:00,72.3,67.6,74.3,24
195,ns01,2018-07-14T00:00:00,72,68.2,74.4,24
196,ns01,2018-07-15T00:00:00,71.3,67.7,73,24
197,ns01,2018-07-16T00:00:00,72.1,66.2,74.2,24
198,ns01,2018-07-17T00:00:00,72.1,67.7,74,24
199,ns01,2018-07-18T00:00:00,72.8,68,78,24
200,ns01,2018-07-19T00:00:00,72.3,68.2,74.2,24
201,ns01,2018-07-20T00:00:00,72.5,68.1,74.4,24
202,ns01,2018-07-21T00:00:00,72.5,68.1,74.7,24
203,ns01,2018-07-22T00:00:00,71.9,68.3,74.3,24
204,ns01,2018-07-23T00:00:00,72.7,67.7,74.7,24
205,ns01,2018-07-24T00:00:00,73.5,67.4,81.3,24
206,ns01,2018-07-25T00:00:00,72.8,67.8,75.3,24
207,ns01,2018-07-26T00:00:00,73.2,68.4,76.4,24
208,ns01,2018-07-27T00:00:00,72.5,69.3,76.2,24
209,ns01,2018-07-28T00:00:00,72.3,67.6,74.1,24
210,ns01,2018-07-29T00:00:00,71.4,67.7,73.2,24
211,ns01,2018-07-30T00:00:00,72,67.7,74.3,24
212,ns01,2018-07-31T00:00:00,72.6,67.5,75.1,24
213,ns01,2018-08-01T00:00:00,72.6,67.3,74.3,24
214,ns01,2018-08-02T00:00:00,72.6,67.1,74.9,24
215,ns01,2018-08-03T00:00:00,73,68.3,75.8,24
216,ns01,2018-08-04T00:00:00,72.4,69.1,74.2,24
217,ns01,2018-08-05T00:00:00,71.9,68.7,73.2,24
218,ns01,2018-08-06T00:00:00,72.8,67.2,76,24
219,ns01,2018-08-07T00:00:00,72.5,68,75.8,24
220,ns01,2018-08-08T00:00:00,72.8,67.2,77.2,24
221,ns01,2018-08-09T00:00:00,73,68.7,78.1,24
222,ns01,2018-08-10T00:00:00,74.3,68.9,81.3,24
223,ns01,2018-08-11T00:00:00,72.2,68.7,73.8,24
224,ns01,2018-08-12T00:00:00,72.2,68.6,76,24
225,ns01,2018-08-13T00:00:00,71.9,67.4,73.2,24
226,ns01,2018-08-14T00:00:00,72.4,67,75.2,24
227,ns01,2018-08-15T00:00:00,72.7,67,77.3,24
228,ns01,2018-08-16T00:00:00,73.3,67.3,78.5,24
229,ns01,2018-08-17T00:00:00,72.8,68.2,75.1,24
230,ns01,2018-08-18T00:00:00,73.4,68.9,79.4,24
231,ns01,2018-08-19T00:00:00,71.6,67.9,74.3,24
232,ns01,2018-08-20T00:00:00,72.3,67.5,74.6,24
233,ns01,2018-08-21T00:00:00,72.9,66.7,77.9,24
234,ns01,2018-08-22T00:00:00,72.5,67.6,74.7,24
235,ns01,2018-08-23T00:00:00,72.8,68.1,77.6,24
236,ns01,2018-08-24T00:00:00,73.2,67.8,77.4,24
237,ns01,2018-08-25T00:00:00,71.8,68.5,73.5,24
238,ns01,2018-08-26T00:00:00,71.1,67.7,72.8,24
239,ns01,2018-08-27T00:00:00,72,67,75,24
240,ns01,2018-08-28T00:00:00,71.9,66.6,74,24
241,ns01,2018-08-29T00:00:00,72.7,67.9,74.9,24
242,ns01,2018-08-30T00:00:00,72.6,67.6,74.9,24
243,ns01,2018-08-31T00:00:00,72.6,67.7,76.4,24
244,ns01,2018-09-01T00:00:00,72.3,68.7,74.6,24
245,ns01,2018-09-02T00:00:00,71.5,69,72.9,24
246,ns01,2018-09-03T00:00:00,72.4,67.9,74.7,24
247,ns01,2018-09-04T00:00:00,72.2,66.9,74.9,24
248,ns01,2018-09-05T00:00:00,72.3,66.8,75.3,24
249,ns01,2018-09-06T00:00:00,72.3,67,74.8,24
250,ns01,2018-09-07T00:00:00,73.6,68.1,80.4,24
251,ns01,2018-09-08T00:00:00,72.7,69.2,75.9,24
252,ns01,2018-09-09T00:00:00,71.7,68.7,74.8,24
253,ns01,2018-09-10T00:00:00,72.2,67.3,74.5,24
254,ns01,2018-09-11T00:00:00,72,67.7,74.7,24
255,ns01,2018-09-12T00:00:00,72.3,67.1,76.8,24
256,ns01,2018-09-13T00:00:00,72.3,66.7,74.8,24
257,ns01,2018-09-14T00:00:00,72.6,68.3,74.5,24
258,ns01,2018-09-15T00:00:00,72.2,68.3,74.2,24
259,ns01,2018-09-16T00:00:00,71.7,68.3,73.5,24
260,ns01,2018-09-17T00:00:00,72.1,67.6,74.3,24
261,ns01,2018-09-18T00:00:00,72.8,67.4,76.4,24
262,ns01,2018-09-19T00:00:00,72.1,65.8,74.7,24
263,ns01,2018-09-20T00:00:00,72.7,66.5,77.4,24
264,ns01,2018-09-21T00:00:00,72.3,66.6,74.8,24
265,ns01,2018-09-22T00:00:00,73,67.8,80.1,24
266,ns01,2018-09-23T00:00:00,71.6,68.2,73.3,24
267,ns01,2018-09-24T00:00:00,72.5,67.6,75.6,24
268,ns01,2018-09-25T00:00:00,72.4,67.6,75,24
269,ns01,2018-09-26T00:00:00,72.1,66.7,74.9,24
270,ns01,2018-09-27T00:00:00,72.4,67.2,76.6,24
271,ns01,2018-09-28T00:00:00,72.6,67.2,75.2,24
272,ns01,2018-09-29T00:00:00,72,68.2,74.9,24
273,ns01,2018-09-30T00:00:00,71.6,67.3,73.1,24
274,ns01,2018-10-01T00:00:00,72.6,67.4,75.9,24
275,ns01,2018-10-02T00:00:00,73.1,67.2,77.1,24
276,ns01,2018-10-03T00:00:00,72.5,66.8,74.3,24
277,ns01,2018-10-04T00:00:00,72.1,67.3,73.9,24
278,ns01,2018-10-05T00:00:00,73.3,66.9,78.1,24
279,ns01,2018-10-06T00:00:00,72.3,68.3,74.2,24
280,ns01,2018-10-07T00:00:00,71.9,67.4,75.1,24
281,ns01,2018-10-08T00:00:00,72.5,67.3,75,24
282,ns01,2018-10-09T00:00:00,72.6,67,76.3,24
283,ns01,2018-10-10T00:00:00,72.4,67.4,75.7,24
284,ns01,2018-10-11T00:00:00,72.4,67.3,75.7,24
285,ns01,2018-10-12T00:00:00,73,66.8,77.6,24
286,ns01,2018-10-13T00:00:00,72.1,67.3,75.2,24
287,ns01,2018-10-14T00:00:00,71.4,68.1,74.2,24
288,ns01,2018-10-15T00:00:00,71.6,66.2,73.3,24
289,ns01,2018-10-16T00:00:00,72.2,67.1,75.1,24
290,ns01,2018-10-17T00:00:00,72.1,67.8,75.3,24
291,ns01,2018-10-18T00:00:00,72,66.8,75.3,24
292,ns01,2018-10-19T00:00:00,72.9,67.1,77.4,24
293,ns01,2018-10-20T00:00:00,73.1,68.6,81.5,24
294,ns01,2018-10-21T00:00:00,71.2,67.7,73.5,24
295,ns01,2018-10-22T00:00:00,72.5,66.8,75,24
296,ns01,2018-10-23T00:00:00,73.1,67.6,78.2,24
297,ns01,2018-10-24T00:00:00,73,68,75.9,24
298,ns01,2018-10-25T00:00:00,72.5,66.7,76.7,24
299,ns01,2018-10-26T00:00:00,72.8,67.2,77,24
300,ns01,2018-10-27T00:00:00,71.9,66.9,74.6,24
301,ns01,2018-10-28T00:00:00,71.1,67.8,72.6,24
302,ns01,2018-10-29T00:00:00,72.2,66.7,74.5,24
303,ns01,2018-10-30T00:00:00,72.1,67.5,74.5,24
304,ns01,2018-10-31T00:00:00,72.6,67.4,77.2,24
305,ns01,2018-11-01T00:00:00,72.5,68,76.4,24
306,ns01,2018-11-02T00:00:00,72.7,67,77,24
307,ns01,2018-11-03T00:00:00,72.2,67.6,74.3,24
308,ns01,2018-11-04T00:00:00,71.2,67.5,72.8,24
309,ns01,2018-11-05T00:00:00,72,67,73.8,24
310,ns01,2018-11-06T00:00:00,72.6,67.7,76.2,24
311,ns01,2018-11-07T00:00:00,72.3,68.1,76.5,24
312,ns01,2018-11-08T00:00:00,72.1,67.2,74.2,24
313,ns01,2018-11-09T00:00:00,72.2,66.8,74.5,24
314,ns01,2018-11-10T00:00:00,72.5,67.6,75.9,24
315,ns01,2018-11-11T00:00:00,71.5,68.3,73.5,24
316,ns01,2018-11-12T00:00:00,72.2,66.2,76.3,24
317,ns01,2018-11-13T00:00:00,72.3,67.3,75.6,24
318,ns01,2018-11-14T00:00:00,80,68,93,24
319,ns01,2018-11-15T00:00:00,72.3,67.8,76.1,24
320,ns01,2018-11-16T00:00:00,72.3,67,75.2,24
321,ns01,2018-11-17T00:00:00,72.2,68.1,74.3,24
322,ns01,2018-11-18T00:00:00,71.7,68.8,75.8,24
323,ns01,2018-11-19T00:00:00,72.2,68.2,74.9,24
324,ns01,2018-11-20T00:00:00,73.2,67.7,78.3,24
325,ns01,2018-11-21T00:00:00,72.8,69.1,76.2,24
326,ns01,2018-11-22T00:00:00,73.6,68.5,77.3,24
327,ns01,2018-11-23T00:00:00,72.7,68,74.3,24
328,ns01,2018-11-24T00:00:00,72,68.2,74.2,24
329,ns01,2018-11-25T00:00:00,71.4,67.1,74.2,24
330,ns01,2018-11-26T00:00:00,72.7,66.4,76.4,24
331,ns01,2018-11-27T00:00:00,72.5,66.8,76.8,24
332,ns01,2018-11-28T00:00:00,72.8,67.7,76.4,24
333,ns01,2018-11-29T00:00:00,72.8,67.8,76.2,24
334,ns01,2018-11-30T00:00:00,72.9,68.1,76.3,24
335,ns01,2018-12-01T00:00:00,72.2,68.5,74.1,24
336,ns01,2018-12-02T00:00:00,69.6,61.1,72.3,24
337,ns01,2018-12-03T00:00:00,74.3,66.4,84.2,24
338,ns01,2018-12-04T00:00:00,72.5,66.9,74.7,24
339,ns01,2018-12-05T00:00:00,72,68.2,74.4,24
340,ns01,2018-12-06T00:00:00,72.6,68.2,75.2,24
341,ns01,2018-12-07T00:00:00,72.3,67.9,74.2,24
342,ns01,2018-12-08T00:00:00,72.5,68.4,76.8,24
343,ns01,2018-12-09T00:00:00,68.1,54.3,72.4,24
344,ns01,2018-12-10T00:00:00,71.8,67.4,73.6,24
345,ns01,2018-12-11T00:00:00,72.5,67.6,75.2,24
346,ns01,2018-12-12T00:00:00,72.4,67.8,74.3,24
347,ns01,2018-12-13T00:00:00,72.6,66.9,74.8,24
348,ns01,2018-12-14T00:00:00,72.9,68.2,78.4,24
349,ns01,2018-12-15T00:00:00,72.7,68.7,75,24
350,ns01,2018-12-16T00:00:00,71.9,68,77.6,24
351,ns01,2018-12-17T00:00:00,72.4,68,76.5,24
352,ns01,2018-12-18T00:00:00,72.6,68,77.3,24
353,ns01,2018-12-19T00:00:00,72.3,66.7,75.2,24
354,ns01,2018-12-20T00:00:00,72.4,68.6,74.3,24
355,ns01,2018-12-21T00:00:00,72.8,68.1,74.6,24
356,ns01,2018-12-22T00:00:00,72.3,69.1,75.6,24
357,ns01,2018-12-23T00:00:00,71.2,67.9,73,24
358,ns01,2018-12-24T00:00:00,74.6,67.6,83.5,24
359,ns01,2018-12-25T00:00:00,72.5,67.7,75,24
360,ns01,2018-12-26T00:00:00,72.5,66.8,74.2,24
361,ns01,2018-12-27T00:00:00,72.3,68.9,76.1,24
362,ns01,2018-12-28T00:00:00,72.7,68.5,76.7,24
363,ns01,2018-12-29T00:00:00,72.3,68.4,75.6,24
364,ns01,2018-12-30T00:00:00,71.8,68.1,77.5,24
365,ns01,2018-12-31T00:00:00,71.5,68.2,73,24
366,ns02,2018-01-01T00:00:00,55.4,43.6,66.2,24
367,ns02,2018-01-02T00:00:00,52.6,42.9,57.8,24
368,ns02,2018-01-03T00:00:00,57.3,43.2,67.6,24
369,ns02,2018-01-04T00:00:00,54.4,43.1,60.8,24
370,ns02,2018-01-05T00:00:00,54.1,42.6,60,24
371,ns02,2018-01-06T00:00:00,52.6,43.9,56.7,24
372,ns02,2018-01-07T00:00:00,51.6,43.2,55.3,24
373,ns02,2018-01-08T00:00:00,56.8,44.7,66.2,24
374,ns02,2018-01-09T00:00:00,60.2,45.8,72.4,24
375,ns02,2018-01-10T00:00:00,58.8,46.1,69.9,24
376,ns02,2018-01-11T00:00:00,53.9,45.6,59.4,24
377,ns02,2018-01-12T00:00:00,56.3,44.2,65.2,24
378,ns02,2018-01-13T00:00:00,83.7,44.8,92.2,24
379,ns02,2018-01-14T00:00:00,87.8,43.1,98.8,24
380,ns02,2018-01-15T00:00:00,56.1,42.5,63.7,24
381,ns02,2018-01-16T00:00:00,51.4,43.8,54.4,24
382,ns02,2018-01-17T00:00:00,55.6,46.1,63.3,24
383,ns02,2018-01-18T00:00:00,55.2,44.2,62.9,24
384,ns02,2018-01-19T00:00:00,55,44.8,63.2,24
385,ns02,2018-01-20T00:00:00,52.6,43.7,59.3,24
386,ns02,2018-01-21T00:00:00,53.6,45.9,60.6,24
387,ns02,2018-01-22T00:00:00,54.2,47.1,62,24
388,ns02,2018-01-23T00:00:00,53.8,46.9,61.1,22
389,ns02,2018-01-24T00:00:00,55.4,45.6,63.8,24
390,ns02,2018-01-25T00:00:00,58.6,45.4,69.3,24
391,ns02,2018-01-26T00:00:00,57,47.6,64.9,24
392,ns02,2018-01-27T00:00:00,53,46.6,57.6,24
393,ns02,2018-01-28T00:00:00,52.7,47,58.1,24
394,ns02,2018-01-29T00:00:00,54.6,46,60.3,24
395,ns02,2018-01-30T00:00:00,55.9,46.5,64.6,24
396,ns02,2018-01-31T00:00:00,55.4,45,64.1,24
397,ns02,2018-02-01T00:00:00,55.5,44.4,65.7,24
398,ns02,2018-02-02T00:00:00,61.3,43,71.7,24
399,ns02,2018-02-03T00:00:00,52.2,43.5,58.3,24
400,ns02,2018-02-04T00:00:00,50,44.3,53.5,24
401,ns02,2018-02-05T00:00:00,54.6,44,61.4,24
402,ns02,2018-02-06T00:00:00,55.8,44.8,64,24
403,ns02,2018-02-07T00:00:00,52.1,45.9,55.4,24
404,ns02,2018-02-08T00:00:00,55.4,46,62.7,24
405,ns02,2018-02-09T00:00:00,55.4,45,62.8,24
406,ns02,2018-02-10T00:00:00,52.9,45.5,58.3,24
407,ns02,2018-02-11T00:00:00,55.4,45.2,66,24
408,ns02,2018-02-12T00:00:00,54.7,43.5,62.4,24
409,ns02,2018-02-13T00:00:00,54.8,43.2,61.2,24
410,ns02,2018-02-14T00:00:00,55.3,46.3,63.2,24
411,ns02,2018-02-15T00:00:00,56.6,47.4,65.4,24
412,ns02,2018-02-16T00:00:00,54.5,46.4,61.9,24
413,ns02,2018-02-17T00:00:00,50.3,46.2,53.3,24
414,ns02,2018-02-18T00:00:00,52.9,45.7,60.7,24
415,ns02,2018-02-19T00:00:00,54.3,43.5,60.6,24
416,ns02,2018-02-20T00:00:00,54.7,44.8,62.7,24
417,ns02,2018-02-21T00:00:00,54.2,43.8,61.3,24
418,ns02,2018-02-22T00:00:00,56,44.5,64.1,24
419,ns02,2018-02-23T00:00:00,53.9,44,61.2,24
420,ns02,2018-02-24T00:00:00,55.7,44.4,66.1,24
421,ns02,2018-02-25T00:00:00,60.7,45.7,73.6,24
422,ns02,2018-02-26T00:00:00,55.3,43.9,62.2,24
423,ns02,2018-02-27T00:00:00,65.5,44,74.8,24
424,ns02,2018-02-28T00:00:00,55.9,44.7,63.1,24
425,ns02,2018-03-01T00:00:00,53.2,45.7,59.8,24
426,ns02,2018-03-02T00:00:00,54.6,45.8,61,24
427,ns02,2018-03-03T00:00:00,52.7,47,59.6,24
428,ns02,2018-03-04T00:00:00,53.6,47,58.4,24
429,ns02,2018-03-05T00:00:00,57.3,46.1,63.9,24
430,ns02,2018-03-06T00:00:00,75.2,45.1,88.5,24
431,ns02,2018-03-07T00:00:00,65.3,44.6,78.1,24
432,ns02,2018-03-08T00:00:00,54.8,45.6,59.8,24
433,ns02,2018-03-09T00:00:00,57,45.7,63.6,24
434,ns02,2018-03-10T00:00:00,51.4,42.8,55,24
435,ns02,2018-03-11T00:00:00,53.5,44.1,58.5,24
436,ns02,2018-03-12T00:00:00,59.6,46.9,69.9,24
437,ns02,2018-03-13T00:00:00,55.2,46.1,63.8,24
438,ns02,2018-03-14T00:00:00,62,46.6,72.7,24
439,ns02,2018-03-15T00:00:00,62.5,46.6,75.7,24
440,ns02,2018-03-16T00:00:00,63.4,45.6,73.8,24
441,ns02,2018-03-17T00:00:00,52.2,46.3,55.4,24
442,ns02,2018-03-18T00:00:00,52.9,45.4,60.5,24
443,ns02,2018-03-19T00:00:00,65.8,45,76.6,24
444,ns02,2018-03-20T00:00:00,55.5,45.5,64.4,24
445,ns02,2018-03-21T00:00:00,60.9,44.7,72,24
446,ns02,2018-03-22T00:00:00,64.9,43.1,77.6,24
447,ns02,2018-03-23T00:00:00,56.8,44.6,61.9,24
448,ns02,2018-03-24T00:00:00,57.2,47.7,61.7,24
449,ns02,2018-03-25T00:00:00,56.3,46.9,61.6,24
450,ns02,2018-03-26T00:00:00,60.8,50.5,67.7,24
451,ns02,2018-03-27T00:00:00,56.8,51.4,59.7,24
452,ns02,2018-03-28T00:00:00,58.8,52.5,62.6,24
453,ns02,2018-03-29T00:00:00,63.6,50.8,75.7,24
454,ns02,2018-03-30T00:00:00,56.8,48,62,24
455,ns02,2018-03-31T00:00:00,54.9,45.8,63.8,24
456,ns02,2018-04-01T00:00:00,54.7,45.3,64.9,24
457,ns02,2018-04-02T00:00:00,53.1,44.8,57.8,24
458,ns02,2018-04-03T00:00:00,61.4,44.7,73.7,23
459,ns02,2018-04-04T00:00:00,56.7,45.5,63.5,24
460,ns02,2018-04-05T00:00:00,61.7,45.9,73.6,24
461,ns02,2018-04-06T00:00:00,54.1,49.4,58,24
462,ns02,2018-04-07T00:00:00,56.3,47.6,63.9,24
463,ns02,2018-04-08T00:00:00,52.3,46.9,57.6,24
464,ns02,2018-04-09T00:00:00,56.4,43.6,62.2,23
465,ns02,2018-04-10T00:00:00,57.2,47.9,66,24
466,ns02,2018-04-11T00:00:00,55.7,44.5,62.3,24
467,ns02,2018-04-12T00:00:00,54.5,46.3,63.2,24
468,ns02,2018-04-13T00:00:00,52.9,47.3,58.4,24
469,ns02,2018-04-14T00:00:00,52,45.2,55.4,24
470,ns02,2018-04-15T00:00:00,52.6,42.6,59.1,24
471,ns02,2018-04-16T00:00:00,53.7,42.6,64,24
472,ns02,2018-04-17T00:00:00,62.4,43.6,74.4,24
473,ns02,2018-04-18T00:00:00,54.1,46,57.6,24
474,ns02,2018-04-19T00:00:00,54.4,44.5,59.2,24
475,ns02,2018-04-20T00:00:00,54.6,46.1,59.9,24
476,ns02,2018-04-21T00:00:00,53.8,49.5,56.8,24
477,ns02,2018-04-22T00:00:00,53.2,45.2,59.1,24
478,ns02,2018-04-23T00:00:00,56,44.6,61.1,24
479,ns02,2018-04-24T00:00:00,55.9,45.7,62.5,24
480,ns02,2018-04-25T00:00:00,54.2,46.4,59.5,24
481,ns02,2018-04-26T00:00:00,55.4,46.3,60.8,24
482,ns02,2018-04-27T00:00:00,62.7,45.1,75,24
483,ns02,2018-04-28T00:00:00,55.7,51.4,61,24
484,ns02,2018-04-29T00:00:00,58.3,47.3,66.9,24
485,ns02,2018-04-30T00:00:00,56,51.3,63.5,24
486,ns02,2018-05-01T00:00:00,59.7,47.9,67.5,24
487,ns02,2018-05-02T00:00:00,54.3,49.4,57.9,24
488,ns02,2018-05-03T00:00:00,54.5,48,61.4,24
489,ns02,2018-05-04T00:00:00,58.7,48.4,67.1,24
490,ns02,2018-05-05T00:00:00,57.9,50,66,24
491,ns02,2018-05-06T00:00:00,54.5,49.9,61.7,24
492,ns02,2018-05-07T00:00:00,54.4,48.7,60,24
493,ns02,2018-05-08T00:00:00,52.5,49.4,55,24
494,ns02,2018-05-09T00:00:00,57.6,49.5,66,24
495,ns02,2018-05-10T00:00:00,56,50.1,65.6,24
496,ns02,2018-05-11T00:00:00,57.3,46.8,64.4,24
497,ns02,2018-05-12T00:00:00,56.3,48.1,66.1,24
498,ns02,2018-05-13T00:00:00,53.5,47.1,58.6,24
499,ns02,2018-05-14T00:00:00,53.2,45.9,58.8,24
500,ns02,2018-05-15T00:00:00,53.4,46.5,58.1,24
501,ns02,2018-05-16T00:00:00,55.7,45.9,62.9,24
502,ns02,2018-05-17T00:00:00,55.5,46.5,63.1,24
503,ns02,2018-05-18T00:00:00,54.9,45.5,61.6,24
504,ns02,2018-05-19T00:00:00,51.5,44.8,55.5,24
505,ns02,2018-05-20T00:00:00,52.3,46.1,57.3,24
506,ns02,2018-05-21T00:00:00,,45.6,64.2,17
507,ns02,2018-05-22T00:00:00,58.1,47.8,67.4,24
508,ns02,2018-05-23T00:00:00,56.7,47.6,66.3,24
509,ns02,2018-05-24T00:00:00,54.8,46.4,59.7,24
510,ns02,2018-05-25T00:00:00,54,46.8,60.7,24
511,ns02,2018-05-26T00:00:00,56.6,48.2,66.8,24
512,ns02,2018-05-27T00:00:00,57.8,49,66.9,24
513,ns02,2018-05-28T00:00:00,53.8,49.5,59.4,24
514,ns02,2018-05-29T00:00:00,62.9,49.4,72.8,24
515,ns02,2018-05-30T00:00:00,55.2,46.7,61.8,24
516,ns02,2018-05-31T00:00:00,54.6,47.8,61.9,24
517,ns02,2018-06-01T00:00:00,54.9,47.3,63.4,24
518,ns02,2018-06-02T00:00:00,53.1,49,58.1,24